Weather History for HELX - September, 2013

Change the Weather History Date:

Friday, September 27, 2013

  Actual Average Record
Temperature  
Mean Temperature 84 °F -  
Max Temperature 98 °F 92 °F 107 °F (2010)
Min Temperature 69 °F 66 °F 69 °F (2001)
Cooling Degree Days 18    
Growing Degree Days 34 (Base 50)    
Moisture  
Dew Point 58 °F    
Average Humidity 42    
Maximum Humidity 68    
Minimum Humidity 16    
Precipitation  
Precipitation 0.00 in 0.00 in - ()
Sea Level Pressure  
Sea Level Pressure 29.82 in    
Wind  
Wind Speed 1 mph ()    
Max Wind Speed 6 mph    
Max Gust Speed -    
Visibility 6.0 miles    
Events      
Averages and records for this station are not official NWS values.
T = Trace of Precipitation, MM = Missing Value Source: Averaged Metar Reports

Daily Weather History Graph

Daily Weather History Graph

Search for Another Location

Airport or City:

Trip Planner

Search our weather history database for the weather conditions in past years. The results will help you decide how hot, cold, wet, or windy it might be!

Date:

Astronomy

Sep. 27, 2013 Rise Set
Actual Time 5:39 AM EET 5:40 PM EET
Civil Twilight 5:16 AM EET 6:03 PM EET
Nautical Twilight 4:50 AM EET 6:29 PM EET
Astronomical Twilight 4:23 AM EET 6:56 PM EET
Moon 11:40 PM EET (9/27) 12:32 PM EET (9/27)
Length of Visible Light 12h 46m
Length of Day
12h 00m
Waning Gibbous, 48% of the Moon is Illuminated
Sep 27
Waning Gibbous
Oct 5
New
Oct 12
First Quarter
Oct 19
Full
Oct 27
Last Quarter

Hourly Weather History & Observations

Time (EET) Temp. Heat Index Dew Point Humidity Pressure Visibility Wind Dir Wind Speed Gust Speed Precip Events Conditions
1:00 AM 75.2 °F - 55.4 °F 50% 29.83 in - Calm Calm - N/A   Clear
2:00 AM 74 °F - 56 °F 43% 29.82 in 6 mi Calm Calm - -  
2:00 AM 73.4 °F - 55.4 °F 53% 29.83 in - Calm Calm - N/A   Clear
3:00 AM 73.4 °F - 57.2 °F 57% 29.83 in - Calm Calm - N/A   Clear
4:00 AM 71.6 °F - 57.2 °F 60% 29.83 in - Calm Calm - N/A   Clear
5:00 AM 69.8 °F - 59.0 °F 68% 29.83 in - Calm Calm - N/A   Clear
6:00 AM 71.6 °F - 57.2 °F 60% 29.83 in - Calm Calm - N/A   Clear
7:00 AM 73.4 °F - 59.0 °F 61% 29.86 in - Calm Calm - N/A   Clear
8:00 AM 77 °F - 63 °F 52% 29.87 in 6 mi Calm Calm - -  
8:00 AM 77.0 °F - 62.6 °F 61% 29.89 in - Calm Calm - N/A   Clear
9:00 AM 84.2 °F 84.4 °F 60.8 °F 45% 29.89 in - West 3.5 mph - N/A   Clear
10:00 AM 87.8 °F 87.6 °F 60.8 °F 40% 29.86 in - West 2.3 mph - N/A   Clear
11:00 AM 89.6 °F 88.9 °F 59.0 °F 36% 29.86 in - NNW 2.3 mph - N/A   Clear
12:00 PM 91.4 °F 89.1 °F 53.6 °F 28% 29.83 in - Calm Calm - N/A   Clear
1:00 PM 91.4 °F 89.1 °F 53.6 °F 28% 29.83 in - Calm Calm - N/A   Clear
2:00 PM 99 °F - 57 °F 16% 29.76 in 6 mi NW 4.6 mph - -  
2:00 PM 98.6 °F 97.6 °F 57.2 °F 25% 29.77 in - NW 4.6 mph - N/A   Clear
3:00 PM 96.8 °F 96.2 °F 59.0 °F 28% 29.77 in - NNW 5.8 mph - N/A   Clear
4:00 PM 96.8 °F 95.8 °F 57.2 °F 27% 29.77 in - WNW 5.8 mph - N/A   Clear
5:00 PM 93.2 °F 91.9 °F 57.2 °F 30% 29.77 in - WNW 4.6 mph - N/A   Clear
6:00 PM 89.6 °F 87.7 °F 55.4 °F 31% 29.77 in - West 4.6 mph - N/A   Clear
7:00 PM 86.0 °F 84.5 °F 55.4 °F 35% 29.80 in - West 4.6 mph - N/A   Clear
8:00 PM 85 °F - 56 °F 27% 29.80 in 6 mi West 5.8 mph - -  
8:00 PM 84.2 °F 83.5 °F 57.2 °F 40% 29.80 in - West 5.8 mph - N/A   Clear
9:00 PM 84.2 °F 83.8 °F 59.0 °F 42% 29.83 in - West 3.5 mph - N/A   Clear
10:00 PM 80.6 °F 81.1 °F 59.0 °F 48% 29.83 in - SE 2.3 mph - N/A   Clear
11:00 PM 80.6 °F 81.1 °F 59.0 °F 48% 29.83 in - SE 2.3 mph - N/A   Clear